Location: Unspecified
(58.7730°N, 5.8460°E)
Time: 01:14:40
(UTC+01:00)

Cosmos 1674 - Visible Passes

Search period start: 23 March 2017 00:00
Search period end: 02 April 2017 01:00
Orbit: 498 x 524 km, 82.5° (Epoch: 21 March)

Date Brightness Start Highest point End Pass type
(mag) Time Alt. Az. Time Alt. Az. Time Alt. Az.
23 Mar 3.2 19:50:59 10° N 19:54:32 38° ENE 19:58:06 10° SE visible
23 Mar 4.5 21:26:47 10° NNW 21:30:06 29° W 21:33:23 10° SSW visible
24 Mar 4.2 21:10:16 10° NNW 21:13:43 34° W 21:17:10 10° SSW visible
25 Mar 3.9 20:53:46 10° NNW 20:57:20 41° W 21:00:54 10° SSW visible
26 Mar 3.6 21:37:16 10° NNW 21:40:56 49° W 21:44:36 10° S visible
27 Mar 3.3 21:20:48 10° NNW 21:24:32 59° W 21:28:16 10° S visible
28 Mar 3.0 21:04:20 10° NNW 21:08:07 71° W 21:11:54 10° S visible
28 Mar 5.9 22:41:57 10° WNW 22:43:01 11° W 22:44:05 10° W visible
29 Mar 2.8 20:47:53 10° NNW 20:51:41 85° WSW 20:55:29 10° S visible
29 Mar 5.8 22:24:54 10° NW 22:26:41 13° W 22:28:28 10° WSW visible
30 Mar 5.7 22:08:07 10° NW 22:10:22 15° W 22:12:37 10° WSW visible
31 Mar 5.6 21:51:24 10° NW 21:54:01 18° W 21:56:37 10° SW visible
01 Apr 5.5 21:34:46 10° NW 21:37:39 21° W 21:40:33 10° SW visible
